EW5391 Weather Reports


time (UTC)temp
C
wind
direction
speed
KPH
gust
KPH
rain 1hr
cm
rain 24hr
cm
rain mn
cm
humidity
%
barometer
mb
20260504201515 22 158 1.6 4.8 0.00 0.00 0.00 45 1010.0
20260504200515 22 135 11.3 19.3 0.00 0.00 0.00 43 1010.1
20260504195515 22 45 4.8 12.9 0.00 0.00 0.00 42 1010.4
20260504194536 22 135 3.2 8.0 0.00 0.00 0.00 41 1010.4
20260504193515 22 135 6.4 9.7 0.00 0.00 0.00 42 1010.6
20260504192515 22 135 11.3 24.1 0.00 0.00 0.00 42 1010.7
20260504191517 21 180 6.4 11.3 0.00 0.00 0.00 44 1010.9
20260504190517 21 135 8.0 12.9 0.00 0.00 0.00 42 1011.1
20260504185517 21 135 4.8 11.3 0.00 0.00 0.00 44 1011.2
20260504184517 21 135 11.3 17.7 0.00 0.00 0.00 43 1011.3
20260504183537 21 135 14.5 17.7 0.00 0.00 0.00 43 1011.5
20260504182517 21 180 6.4 14.5 0.00 0.00 0.00 42 1011.6
20260504181537 21 158 3.2 8.0 0.00 0.00 0.00 43 1011.7
20260504180517 21 158 11.3 19.3 0.00 0.00 0.00 42 1011.8
20260504175517 21 158 6.4 27.4 0.00 0.00 0.00 41 1011.9
20260504174557 21 135 9.7 16.1 0.00 0.00 0.00 44 1012.1
20260504173517 21 158 4.8 14.5 0.00 0.00 0.00 44 1012.2
20260504172516 21 158 9.7 12.9 0.00 0.00 0.00 43 1012.3
20260504171517 20 158 8.0 12.9 0.00 0.00 0.00 45 1012.4
20260504170516 20 158 4.8 9.7 0.00 0.00 0.00 44 1012.6
20260504150517 18 158 9.7 14.5 0.00 0.00 0.00 53 1013.7
20260504140516 17 248 6.4 14.5 0.00 0.00 0.00 51 1014.0
20260504130516 16 203 1.6 3.2 0.00 0.00 0.00 55 1014.1
20260504110516 13 225 1.6 1.6 0.00 0.00 0.00 64 1014.7
20260504100516 13 203 4.8 8.0 0.00 0.00 0.00 64 1014.7
20260504081515 12 0.0 0.0 0.00 0.00 0.00 67 1015.0
20260504080516 12 0.0 0.0 0.00 0.00 0.00 66 1015.0
20260504050515 11 0.0 3.2 0.00 0.00 0.00 62 1015.2
20260504045515 11 0.0 0.0 0.00 0.00 0.00 62 1015.2
20260504044518 11 0.0 3.2 0.00 0.00 0.00 61 1015.3
20260504043515 11 203 1.6 3.2 0.00 0.00 0.00 60 1015.2
20260504042515 10 225 1.6 4.8 0.00 0.00 0.00 62 1015.3
20260504041515 10 0.0 3.2 0.00 0.00 0.00 65 1015.1
20260504040515 10 0.0 0.0 0.00 0.00 0.00 70 1015.2
20260504035516 10 0.0 0.0 0.00 0.00 0.00 69 1015.2
20260504034516 10 0.0 0.0 0.00 0.00 0.00 69 1015.0
20260504033516 10 0.0 3.2 0.00 0.00 0.00 67 1015.0
20260504032519 10 0.0 1.6 0.00 0.00 0.00 68 1014.8
20260504031516 10 0.0 0.0 0.00 0.00 0.00 67 1014.7
20260504030536 10 0.0 0.0 0.00 0.00 0.00 68 1014.7
20260504025516 9 0.0 1.6 0.00 0.00 0.00 69 1014.7
20260504024516 9 0.0 0.0 0.00 0.00 0.00 70 1014.7
20260504023516 9 0.0 1.6 0.00 0.00 0.00 71 1014.6
20260504022516 10 0.0 0.0 0.00 0.00 0.00 69 1014.7
20260504021516 9 0.0 1.6 0.00 0.00 0.00 67 1014.7
20260504020516 9 0.0 0.0 0.00 0.00 0.00 68 1014.6
20260504015516 10 0.0 1.6 0.00 0.00 0.00 64 1014.6
20260504014516 10 0.0 1.6 0.00 0.00 0.00 63 1014.5
20260504013516 10 0.0 1.6 0.00 0.00 0.00 61 1014.5
20260504012516 10 0.0 0.0 0.00 0.00 0.00 62 1014.4
20260504011517 11 0.0 0.0 0.00 0.00 0.00 59 1014.3
20260504010516 11 0.0 0.0 0.00 0.00 0.00 58 1014.3
20260504005516 12 0.0 0.0 0.00 0.00 0.00 56 1014.3
20260504004516 12 0.0 0.0 0.00 0.00 0.00 54 1014.1
20260504003536 12 0.0 0.0 0.00 0.00 0.00 52 1014.0
20260504002516 13 0.0 0.0 0.00 0.00 0.00 51 1014.0
20260504001516 14 0.0 0.0 0.00 0.00 0.00 47 1013.9
20260504000516 15 0.0 0.0 0.00 0.00 0.00 43 1013.8
20260503235516 16 0.0 0.0 0.00 0.00 0.00 40 1013.7
20260503234516 16 0.0 0.0 0.00 0.00 0.00 38 1013.5
20260503233516 17 248 1.6 4.8 0.00 0.00 0.00 36 1013.4
20260503232516 17 270 9.7 14.5 0.00 0.00 0.00 35 1013.4
20260503231516 17 270 8.0 16.1 0.00 0.00 0.00 36 1013.4
20260503230539 17 225 4.8 6.4 0.00 0.00 0.00 35 1013.4
20260503225516 17 270 9.7 12.9 0.00 0.00 0.00 35 1013.4
20260503224536 17 270 12.9 16.1 0.00 0.00 0.00 36 1013.5
20260503223516 17 270 14.5 20.9 0.00 0.00 0.00 36 1013.4
20260503222536 17 293 9.7 14.5 0.00 0.00 0.00 38 1013.4
20260503221516 17 293 14.5 16.1 0.00 0.00 0.00 34 1013.4
20260503220516 17 248 16.1 20.9 0.00 0.00 0.00 36 1013.5
20260503215516 17 293 14.5 20.9 0.00 0.00 0.00 33 1013.5
20260503214515 17 270 16.1 25.7 0.00 0.00 0.00 35 1013.5
20260503213515 16 248 16.1 30.6 0.00 0.00 0.00 37 1013.5
20260503212516 16 293 17.7 30.6 0.00 0.00 0.00 39 1013.5
20260503211516 16 270 9.7 12.9 0.00 0.00 0.00 36 1013.3
20260503210515 16 270 9.7 16.1 0.00 0.00 0.00 38 1013.4
20260503205556 16 248 16.1 19.3 0.00 0.00 0.00 38 1013.5
20260503204516 16 270 6.4 11.3 0.00 0.00 0.00 39 1013.5
20260503203515 16 248 9.7 19.3 0.00 0.00 0.00 40 1013.6
20260503202515 15 293 24.1 27.4 0.00 0.00 0.00 41 1013.7